OneWeb SL0514

operational
NORAD ID: 54132 Int'l Des: 2022-138 Owner: ONEWEBN Country: UK Constellation: oneweb
LEOCIRCULARPOLARONEWEB_TYPE

About OneWeb SL0514

Description loading...

Live Position

Loading 3D Globe...

Upcoming Passes

Altitude History

Altitude vs Time

uPlot chart will show altitude changes over time

Two-Line Element Set

1 54132U 22138V 25306.40446795 .00000016 00000-0 82839-5 0 9998
2 54132 87.9241 350.0837 0001815 93.8120 266.3220 13.19725258146917
Epoch: Nov 2, 2025 • Age: 30 hours

Current Status

Altitude 1197.7 km
Velocity 7.26 km/s
Sub-Earth Point 78.57°N, 88.71°E
Launch Date Oct 22, 2022
Age 3 years
Type internet

Technical Details

Classification Payload
Mass 148.00 kg
Dry Mass 140.00 kg
Total Mass 148.00 kg
Length 1.30 m
Diameter 1.00 m
Span 5.00 m
Shape Trapezoid+2 pan
Manufacturer ONEWUS
Bus Type ARROW
Phase Status In Orbit
Owner/State ONEWEBN/UK

Large Constellations

Loading constellations...